Regional Weather Roundup
Issued by NWS

Home | Current Version | Previous Version | Text Only | Print | Product List | Glossary Off
Versions: 1 2 3 4 5 6 7 8 9 10 11 12 13 14 15 16 17 18 19 20 21 22 23 24 25 26 27 28 29 30 31 32 33 34 35 36 37 38 39 40 41 42 43 44 45 46 47 48 49 50

000
ASUS43 KMKX 230721
RWRWI

WISCONSIN REGIONAL WEATHER ROUNDUP
NATIONAL WEATHER SERVICE MILWAUKEE/SULLIVAN WI
200 AM CDT SAT JUL 23 2016

NOTE: "FAIR" INDICATES FEW OR NO CLOUDS BELOW 12,000 FEET WITH NO
SIGNIFICANT WEATHER AND/OR OBSTRUCTIONS TO VISIBILITY.

WIZ001-002-006>008-014>016-023>028-230800-
NORTHWEST WISCONSIN

CITY           SKY/WX    TMP DP  RH WIND       PRES   REMARKS
SUPERIOR ARPT  CLOUDY    64  64  99 S3        29.99S
ASHLAND        PTCLDY    65  61  87 CALM      30.00S
HAYWARD        PTCLDY    65  63  93 NE3       30.02S FOG
SIREN          CLOUDY    70  68  94 CALM      30.00S
CUMBERLAND     MOCLDY    66  64  94 CALM      30.01S
RICE LAKE      FOG       67  66  95 CALM      30.02S VSB 1/2
CHETEK         MOCLDY    67  67 100 CALM      30.01S
LADYSMITH      CLOUDY    68  67  94 CALM      30.03F
EAU CLAIRE     FOG       68  67  96 NE3       29.99S VSB 3/4
MENOMONIE      CLEAR     69  66  90 CALM      30.00S
NEW RICHMOND   CLEAR     67  67  98 CALM      30.00S
OSCEOLA        PTCLDY    67  67 100 CALM      30.01F
$$

WIZ003>005-009-010-017-018-230800-
NORTH CENTRAL WISCONSIN

CITY           SKY/WX    TMP DP  RH WIND       PRES   REMARKS
MANITOWISH WTR MOCLDY    62  62 100 CALM      30.02F FOG
ARBOR VITAE    CLOUDY    64  63  94 CALM      30.03S
WOODRUFF       CLOUDY    64  63  94 CALM      30.03S
RHINELANDER    PTCLDY    65  63  93 CALM      30.04R
EAGLE RIVER    PTCLDY    62  62 100 CALM      30.03S
LAND O LAKES   CLOUDY    59  59  99 CALM      30.04S
PHILLIPS       PTCLDY    66  66 100 CALM      30.02S
TOMAHAWK       CLOUDY    62  61  95 CALM      30.03S
MEDFORD          N/A     62  62 100 CALM      30.03R FOG
MERRILL        PTCLDY    64  64 100 CALM      30.04R FOG
$$

WIZ029-030-035-036-043>047-230800-
CENTRAL WISCONSIN

CITY           SKY/WX    TMP DP  RH WIND       PRES   REMARKS
WAUSAU         CLEAR     71  68  90 CALM      30.01R
MOSINEE        CLEAR     70  68  94 CALM      30.02S
MARSHFIELD     PTCLDY    70  66  87 N3        30.00F
STEVENS POINT  CLOUDY    65  65  97 CALM      30.01S
WAUPACA        PTCLDY    70  70  98 CALM      29.99S
WAUTOMA        PTCLDY    68  67  96 CALM      29.99F
WISC RAPIDS    CLEAR     69  65  86 CALM      30.00F
CAMP DOUGLAS   FOG       64  64 100 N1        29.98F VSB 1/2
$$

WIZ011>013-019>022-031-037>040-048>050-230800-
NORTHEAST WISCONSIN

CITY           SKY/WX    TMP DP  RH WIND       PRES   REMARKS
ANTIGO         CLEAR     63  62  98 CALM      30.03S
SHAWANO        FOG       68  66  93 CALM      29.98S VSB 3/4
OCONTO         PTCLDY   N/A N/A N/A CALM      29.96R
STURGEON BAY   PTCLDY    70  68  93 S3        29.97S
GREEN BAY      CLEAR     69  69 100 CALM      29.97S
MANITOWOC      CLEAR     75  71  87 W3        29.97S
APPLETON       CLEAR     72  63  73 W9        29.97S
CLINTONVILLE   CLEAR     68  66  94 CALM      29.98S
OSHKOSH        CLEAR     73  68  84 W3        29.98S
$$

WIZ032>034-041-042-053>061-230800-
SOUTHWEST WISCONSIN

CITY           SKY/WX    TMP DP  RH WIND       PRES   REMARKS
LA CROSSE      PTCLDY    78  75  90 SE6       29.96F HX  81
SPARTA         PTCLDY    68  67  99 CALM      29.99F
VIROQUA        PTCLDY    75  75 100 CALM      30.01F
BOSCOBEL       FOG       77  76  96 CALM      29.98F VSB 1/4
PRAIRIE DU CHI FOG       76  74  95 CALM      29.97F VSB 1
PLATTEVILLE    PTCLDY    76  76 100 CALM      30.01S
$$

WIZ056-057-062-063-064-067-068-230800-
SOUTH CENTRAL WISCONSIN

CITY           SKY/WX    TMP DP  RH WIND       PRES   REMARKS
REEDSBURG      CLEAR     75  75 100 CALM      29.98F
BARABOO/DELLS  CLEAR     75  73  93 CALM      29.99F FOG
LONE ROCK      FOG       77  76  96 CALM      29.99S VSB 1/2
MINERAL POINT  FOG       77  77 100 CALM      30.01S VSB 1/4
MADISON        CLEAR     77  75  93 CALM      29.98F
MIDDLETON      CLEAR     75  75 100 CALM      30.00F
WATERTOWN        N/A     74  74 100 CALM      29.99F FOG
MONROE         CLEAR     77  73  88 CALM      30.00F
JANESVILLE     CLEAR     77  75  94 CALM      29.99S
$$

WIZ051-052-058>065-066-070>072-230800-
SOUTHEAST WISCONSIN

CITY           SKY/WX    TMP DP  RH WIND       PRES   REMARKS
MILWAUKEE      PTCLDY    76  71  85 CALM      29.98S
WAUKESHA       CLEAR     72  72 100 CALM      30.00F
MILWAUKEE/TIMM CLEAR     73  68  83 CALM      29.99F
RACINE         CLEAR     76  72  87 W5        30.00F
BURLINGTON     PTCLDY    73  73  98 CALM      29.99F FOG
KENOSHA        CLEAR     76  74  93 SW3       29.99F
FOND DU LAC    CLEAR     73  71  93 SW3       29.99S
SHEBOYGAN      CLEAR     72  69  90 W6        29.98S
WEST BEND      CLEAR     70  70 100 CALM      29.99F
JUNEAU         FOG       73  73  98 CALM      30.01S VSB<1/4
$$

LSZ147-162-230800-
LAKE SUPERIOR

STATION/POSITION TIME  TEMP    WIND        PRES    WAVE
                       AIR SEA DIR/SP/G            HT/PER
                 (UTC) (F)     (DEG/KT/KT) (MB)    (FT/S)
W MID LAKE BUOY  0650   62 58  260/  6/  6 1014.0F   1
DEVILS ISLAND    0700   70     240/  6/  7 1015.1R
SAXON HARBOR     0640   67     200/  5/  6 1015.2R
$$

LMZ867-665-643>646-230800-
LAKE MICHIGAN

STATION/POSITION TIME  TEMP    WIND        PRES    WAVE
                       AIR SEA DIR/SP/G            HT/PER
                 (UTC) (F)     (DEG/KT/KT) (MB)    (FT/S)
CHAMBERS ISLAND  0600   71     220/  3/  6 1014.2S
S GREEN BAY BUOY 0600   76 75  290/  4/  6   N/A
N MID LAKE BUOY  0650   71 68  280/  4/  6 1013.3R   1/ 5
NORTHPORT PIER   0600   75     260/  3/  5 1013.9S
KEWAUNEE LAKESHO 0600   73     310/  5/  6 1014.0S
SHEBOYGAN LAKESH 0700   71     230/  4/  4 1014.8S
PORT WASHINGTON  0640   69     280/  2/  3 1015.6F
MILWAUKEE LAKESH 0620   69     260/  1/  2   N/A
S MID LAKE BUOY  0650   74 73  210/  6/  6 1014.8S   0
KENOSHA   LAKESH 0700   76     250/  1/  1 1014.9F
$$

TC  - TEMPERATURE IN CELSIUS
VSB - VISIBILITY IN STATUTE MILES
WCI - WIND CHILL INDEX
HX  - HEAT INDEX




USA.gov is the U.S. government's official web portal to all federal, state and local government web resources and services.